Location: Karcze
(52.0945°N, 22.4786°E)
Time: 12:36:15
(UTC+00:00)

Cosmos 1666 - Pass Details

Date: 14 July 2020
Orbit: 497 x 521 km, 82.5° (Epoch: 08 August)

Event Time Altitude Azimuth Distance (km) Brightness Sun altitude
Exits shadow 01:13:07 11° 202° (SSW) 1,659 4.6 -8.7°
Maximum altitude 01:16:42 61° 283° (WNW) 579 2.8 -8.4°
Drops below altitude 10° 01:20:27 10° 5° (N) 1,724 6.3 -8.0°
Sets 01:22:36 0° 9° (N) 2,610 7.4 -7.8°
